Simultaneous Nadir Overpasses (SNOs) Predictions

Prediction of SNOs between TERRA and METOP-C Satellite Orbit:

Table of predicted SNOs for the next 14.0 days since TLE Epoch: 9/11/2021
Index Date (TERRA) Time (TERRA) Lat,Lon (TERRA) SZA (TERRA ) Date (METOP-C) Time (METOP-C) Lat,Lon (METOP-C) SZA (METOP-C ) Distance(km) Time Diff (sec)
1 09/13/2021 03:56:04 -81.29, -13.75 99.75 09/13/2021 03:55:13 -81.29, -13.72 99.77 0.80 51
2 09/13/2021 04:45:30 81.29, 153.99 80.28 09/13/2021 04:45:53 81.30, 154.08 80.31 1.81 23
3 09/15/2021 23:30:16 -81.30, 52.95 98.61 09/15/2021 23:29:33 -81.29, 52.79 98.65 2.79 43
4 09/16/2021 00:19:42 81.30,-139.35 81.42 09/16/2021 00:20:13 81.30,-139.49 81.42 2.38 31
5 09/18/2021 19:04:28 -81.29, 119.22 97.53 09/18/2021 19:03:52 -81.29, 119.28 97.53 1.09 36
6 09/18/2021 19:53:54 81.29, -73.10 82.50 09/18/2021 19:54:32 81.30, -73.07 82.53 1.07 38
7 09/21/2021 14:38:40 -81.30,-174.18 96.39 09/21/2021 14:38:12 -81.30,-174.24 96.41 1.22 28
8 09/21/2021 15:28:06 81.30, -6.53 83.63 09/21/2021 15:28:52 81.30, -6.66 83.64 2.26 46
9 09/24/2021 10:12:52 -81.31,-107.62 95.26 09/24/2021 10:12:32 -81.30,-107.78 95.29 2.95 20



Historial Predications of SNOs between TERRA and METOP-C
